Voltar ao catálogo

FENGYUN 1C DEB

AtivoPO
NORAD 33678·DEBRIS·🇨🇳 China

Lançado May 10, 1999 de Taiyuan Satellite Launch Center

Loading…

Próximas Passagens (próximas 24 horas)

TLE

AtualizadoSource: Space-Track

Época: Sep 12, 2026, 16:48 UTC

1 33678U 99025DFP 26255.70025524  .00001213  00000-0  26200-3 0  9997
2 33678  99.0222 344.9240 0203441 137.9347 223.7667 14.48330390990609

Acompanhe FENGYUN 1C DEB em tempo real com AllMySat

Download on the App Store